K7SSW Weather Reports


Display with metric or nautical units.
time (UTC)temp
F
wind
direction
speed
MPH
gust
MPH
rain 1hr
in
rain 24hr
in
rain mn
in
humidity
%
barometer
mb
20260505183049 57 215 2.0 10.0 0.00 0.00 0.00 82 1017.7
20260505181539 57 205 4.0 9.0 0.00 0.00 0.00 82 1017.6
20260505180043 56 169 2.0 6.0 0.00 0.00 0.00 82 1017.7
20260505174537 56 190 2.0 7.0 0.00 0.00 0.00 83 1017.6
20260505173038 56 157 2.0 10.0 0.00 0.00 0.00 84 1017.6
20260505171537 56 145 3.0 9.0 0.00 0.00 0.00 84 1017.6
20260505170043 55 136 2.0 10.0 0.00 0.00 0.00 84 1017.5
20260505164553 55 215 2.0 8.0 0.00 0.00 0.00 84 1017.6
20260505163039 55 188 4.0 9.0 0.00 0.00 0.00 84 1017.4
20260505161549 55 163 4.0 10.0 0.00 0.00 0.00 84 1017.5
20260505153045 55 202 2.0 8.0 0.00 0.00 0.00 85 1017.3
20260505151538 55 223 3.0 8.0 0.00 0.00 0.00 85 1017.2
20260505124545 54 196 3.0 10.0 0.00 0.00 0.00 87 1016.0
20260505123043 53 173 3.0 8.0 0.00 0.00 0.00 88 1015.9
20260505121539 53 197 5.0 13.0 0.00 0.00 0.00 88 1015.8
20260505120048 53 182 5.0 14.0 0.00 0.00 0.00 88 1015.8
20260505114536 53 186 4.0 11.0 0.00 0.00 0.00 88 1015.6
20260505113051 53 165 3.0 9.0 0.00 0.00 0.00 88 1015.6
20260505111538 53 150 5.0 11.0 0.00 0.00 0.00 88 1015.5
20260505101539 53 132 5.0 11.0 0.00 0.00 0.00 89 1015.3
20260505100039 53 181 3.0 10.0 0.00 0.00 0.00 89 1015.2
20260505094539 53 167 6.0 13.0 0.00 0.00 0.00 89 1015.1
20260505093038 53 134 5.0 14.0 0.00 0.00 0.00 89 1015.1
20260505091540 53 133 4.0 9.0 0.00 0.00 0.00 88 1015.0
20260505090038 53 77 2.0 7.0 0.00 0.00 0.00 88 1014.8
20260505084546 54 156 3.0 8.0 0.00 0.00 0.00 88 1014.7
20260505083046 54 186 3.0 10.0 0.00 0.00 0.00 87 1014.6
20260505081549 54 141 4.0 8.0 0.00 0.00 0.00 87 1014.6
20260505080043 54 115 5.0 12.0 0.00 0.00 0.00 87 1014.6
20260505074539 55 157 3.0 9.0 0.00 0.00 0.00 86 1014.7
20260505073039 55 146 5.0 13.0 0.00 0.00 0.00 85 1014.5
20260505071545 55 168 3.0 8.0 0.00 0.00 0.00 85 1014.3
20260505070047 56 188 1.0 6.0 0.00 0.00 0.00 84 1014.1
20260505064540 56 143 2.0 7.0 0.00 0.00 0.00 83 1014.1
20260505063039 57 155 3.0 8.0 0.00 0.00 0.00 82 1014.0
20260505061538 58 129 4.0 7.0 0.00 0.00 0.00 81 1013.8
20260505060042 58 177 0.0 7.0 0.00 0.00 0.00 80 1013.7
20260505054538 59 140 4.0 10.0 0.00 0.00 0.00 80 1013.5
20260505053105 59 149 5.0 12.0 0.00 0.00 0.00 79 1013.3
20260505051538 60 155 5.0 11.0 0.00 0.00 0.00 78 1013.2
20260505041545 64 129 2.0 4.0 0.00 0.00 0.00 72 1012.9
20260505040042 65 0 0.0 0.0 0.00 0.00 0.00 66 1012.6
20260505034537 66 0 0.0 1.0 0.00 0.00 0.00 64 1012.4
20260505033045 66 0 0.0 3.0 0.00 0.00 0.00 62 1012.4
20260505031536 67 160 0.0 5.0 0.00 0.00 0.00 60 1012.3
20260505030046 68 250 1.0 4.0 0.00 0.00 0.00 60 1012.3
20260505024540 69 342 2.0 5.0 0.00 0.00 0.00 57 1012.1
20260505023046 69 346 2.0 6.0 0.00 0.00 0.00 59 1012.0
20260505021537 68 14 3.0 10.0 0.00 0.00 0.00 61 1012.1
20260505020037 68 338 5.0 10.0 0.00 0.00 0.00 62 1012.1
20260505014537 70 327 5.0 12.0 0.00 0.00 0.00 59 1012.0
20260505013043 71 324 5.0 11.0 0.00 0.00 0.00 60 1012.0
20260505011558 73 349 6.0 10.0 0.00 0.00 0.00 55 1012.0
20260505010039 79 205 1.0 5.0 0.00 0.00 0.00 49 1012.0
20260505004537 80 205 2.0 5.0 0.00 0.00 0.00 48 1011.9
20260505003037 79 229 1.0 5.0 0.00 0.00 0.00 47 1012.1
20260505001538 80 0 2.0 4.0 0.00 0.00 0.00 46 1012.0
20260505000043 79 0 2.0 6.0 0.00 0.00 0.00 46 1011.9
20260504234540 80 264 2.0 6.0 0.00 0.00 0.00 46 1012.0
20260504233051 80 257 1.0 7.0 0.00 0.00 0.00 46 1012.0
20260504231538 79 246 2.0 6.0 0.00 0.00 0.00 46 1011.8
20260504230038 79 263 2.0 6.0 0.00 0.00 0.00 47 1011.8
20260504224544 79 229 2.0 7.0 0.00 0.00 0.00 48 1012.0
20260504223037 78 227 3.0 5.0 0.00 0.00 0.00 47 1012.1
20260504221539 78 235 2.0 5.0 0.00 0.00 0.00 49 1012.3
20260504220039 76 252 2.0 7.0 0.00 0.00 0.00 53 1012.4
20260504214538 75 242 3.0 7.0 0.00 0.00 0.00 58 1012.4
20260504213038 74 240 3.0 8.0 0.00 0.00 0.00 61 1012.5
20260504211536 73 257 3.0 6.0 0.00 0.00 0.00 61 1012.7
20260504210037 72 242 3.0 7.0 0.00 0.00 0.00 61 1012.7
20260504204540 71 225 3.0 7.0 0.00 0.00 0.00 62 1012.7
20260504203046 71 244 2.0 5.0 0.00 0.00 0.00 63 1012.6
20260504201538 71 257 2.0 6.0 0.00 0.00 0.00 59 1012.5
20260504200037 69 275 1.0 6.0 0.00 0.00 0.00 64 1012.5
20260504194537 70 257 1.0 7.0 0.00 0.00 0.00 58 1012.5
20260504193038 68 257 2.0 5.0 0.00 0.00 0.00 60 1012.5
20260504191549 67 279 2.0 4.0 0.00 0.00 0.00 62 1012.5
20260504190041 68 272 2.0 4.0 0.00 0.00 0.00 59 1012.6
20260504184539 67 274 1.0 4.0 0.00 0.00 0.00 57 1012.8